Find Starlink 1962

NORAD ID: 47563 Int'l Des: 2021-009 Owner: SPXS Country: US Constellation: starlink operational
LEOCIRCULAR

当前视图

正在加载3D地球...

关于 Starlink 1962

正在加载描述...

即将过境

Passes for default location (London). Set your location on the main map for personalized predictions.

高度历史

Loading altitude history...

两行轨道根数

1 47563U 21009R 26159.50002315 .00158689 00000-0 53883-3 0 9993
2 47563 53.0367 265.9166 0001475 31.8471 311.9643 15.88924258 6046
Epoch: Jun 8, 2026 • Age: 6 hours

当前状态

高度 304.4 km
速度 7.73 km/s
星下点 18.10°N, 108.58°E
发射日期 Feb 4, 2021
运行时间 5.3 years
类型 internet

技术详情

分类 Payload
质量 260.00 kg
干质量 248.00 kg
总质量 260.00 kg
长度 0.20 m
直径 2.80 m
跨度 9.00 m
形状 Box + pan
制造商 SPXS
平台类型 Starlink
阶段状态 In Orbit
所有者/国家 SPXS/US

Most Searched